| time (UTC) | temp C | wind direction | speed KPH | gust KPH | rain 1hr cm | rain 24hr cm | rain mn cm | humidity % | barometer mb |
| 20260506051404 | 6 | 353 | 3.2 | 16.1 | 0.00 | 0.00 | 0.00 | 83 | 1013.9 |
| 20260506050904 | 6 | 6 | 6.4 | 16.1 | 0.00 | 0.00 | 0.00 | 82 | 1013.9 |
| 20260506050405 | 6 | 1 | 4.8 | 11.3 | 0.00 | 0.00 | 0.00 | 82 | 1013.9 |
| 20260506044905 | 6 | 10 | 1.6 | 14.5 | 0.00 | 0.00 | 0.00 | 82 | 1013.9 |
| 20260506044404 | 6 | 9 | 4.8 | 14.5 | 0.00 | 0.00 | 0.00 | 82 | 1013.8 |
| 20260506043904 | 6 | 10 | 3.2 | 11.3 | 0.00 | 0.00 | 0.00 | 82 | 1013.8 |
| 20260506043405 | 6 | 356 | 1.6 | 11.3 | 0.00 | 0.00 | 0.00 | 82 | 1013.9 |
| 20260506042905 | 6 | 20 | 3.2 | 11.3 | 0.00 | 0.00 | 0.00 | 82 | 1013.9 |
| 20260506042404 | 6 | 12 | 1.6 | 9.7 | 0.00 | 0.00 | 0.00 | 82 | 1013.9 |
| 20260506041904 | 6 | 12 | 3.2 | 9.7 | 0.00 | 0.00 | 0.00 | 82 | 1013.9 |
| 20260506041404 | 6 | 3 | 3.2 | 11.3 | 0.00 | 0.00 | 0.00 | 82 | 1014.0 |
| 20260506040905 | 6 | 22 | 4.8 | 11.3 | 0.00 | 0.00 | 0.00 | 82 | 1014.0 |
| 20260506040405 | 6 | 11 | 4.8 | 11.3 | 0.00 | 0.00 | 0.00 | 82 | 1013.9 |
| 20260506035904 | 6 | 23 | 3.2 | 11.3 | 0.00 | 0.00 | 0.00 | 82 | 1014.0 |
| 20260506035404 | 6 | 14 | 3.2 | 11.3 | 0.00 | 0.00 | 0.00 | 82 | 1014.0 |
| 20260506034904 | 7 | 13 | 3.2 | 9.7 | 0.00 | 0.00 | 0.00 | 82 | 1014.0 |
| 20260506034404 | 7 | 4 | 4.8 | 14.5 | 0.00 | 0.00 | 0.00 | 82 | 1014.0 |
| 20260506033404 | 7 | 2 | 1.6 | 9.7 | 0.00 | 0.00 | 0.00 | 82 | 1014.1 |
| 20260506032905 | 7 | 7 | 3.2 | 9.7 | 0.00 | 0.00 | 0.00 | 82 | 1014.1 |
| 20260506031404 | 7 | 16 | 4.8 | 11.3 | 0.00 | 0.00 | 0.00 | 81 | 1014.2 |
| 20260506030905 | 7 | 12 | 3.2 | 11.3 | 0.00 | 0.00 | 0.00 | 81 | 1014.2 |
| 20260506030404 | 7 | 17 | 3.2 | 11.3 | 0.00 | 0.00 | 0.00 | 81 | 1014.2 |
| 20260506025904 | 7 | 10 | 3.2 | 11.3 | 0.00 | 0.00 | 0.00 | 81 | 1014.1 |
| 20260506025405 | 7 | 5 | 3.2 | 9.7 | 0.00 | 0.00 | 0.00 | 81 | 1014.1 |
| 20260506024905 | 7 | 42 | 3.2 | 9.7 | 0.00 | 0.00 | 0.00 | 81 | 1014.2 |
| 20260506024404 | 7 | 10 | 1.6 | 12.9 | 0.00 | 0.00 | 0.00 | 80 | 1014.2 |
| 20260506023904 | 7 | 17 | 4.8 | 12.9 | 0.00 | 0.00 | 0.00 | 80 | 1014.2 |
| 20260506023404 | 7 | 60 | 3.2 | 8.0 | 0.00 | 0.00 | 0.00 | 80 | 1014.3 |
| 20260506022904 | 7 | 8 | 3.2 | 8.0 | 0.00 | 0.00 | 0.00 | 80 | 1014.4 |
| 20260506022404 | 7 | 4 | 3.2 | 8.0 | 0.00 | 0.00 | 0.00 | 80 | 1014.4 |
| 20260506021904 | 7 | 1 | 3.2 | 9.7 | 0.00 | 0.00 | 0.00 | 79 | 1014.4 |
| 20260506021404 | 7 | 26 | 4.8 | 9.7 | 0.00 | 0.00 | 0.00 | 79 | 1014.4 |
| 20260506020904 | 7 | 341 | 3.2 | 9.7 | 0.00 | 0.00 | 0.00 | 79 | 1014.5 |
| 20260506020404 | 7 | 22 | 3.2 | 9.7 | 0.00 | 0.00 | 0.00 | 79 | 1014.4 |
| 20260506015904 | 7 | 354 | 0.0 | 8.0 | 0.00 | 0.00 | 0.00 | 79 | 1014.5 |
| 20260506015404 | 7 | 59 | 1.6 | 9.7 | 0.00 | 0.00 | 0.00 | 78 | 1014.5 |
| 20260506014904 | 7 | 32 | 1.6 | 16.1 | 0.00 | 0.00 | 0.00 | 78 | 1014.5 |
| 20260506014404 | 7 | 17 | 3.2 | 16.1 | 0.00 | 0.00 | 0.00 | 78 | 1014.5 |
| 20260506013404 | 7 | 57 | 1.6 | 12.9 | 0.00 | 0.00 | 0.00 | 78 | 1014.5 |
| 20260506012904 | 7 | 43 | 4.8 | 12.9 | 0.00 | 0.00 | 0.00 | 78 | 1014.6 |
| 20260506012404 | 7 | 46 | 1.6 | 12.9 | 0.00 | 0.00 | 0.00 | 78 | 1014.6 |
| 20260506011905 | 7 | 25 | 4.8 | 12.9 | 0.00 | 0.00 | 0.00 | 78 | 1014.6 |
| 20260506011404 | 8 | 0 | 4.8 | 12.9 | 0.00 | 0.00 | 0.00 | 77 | 1014.6 |
| 20260506010406 | 8 | 32 | 3.2 | 9.7 | 0.00 | 0.00 | 0.00 | 77 | 1014.6 |
| 20260506005904 | 8 | 10 | 1.6 | 8.0 | 0.00 | 0.00 | 0.00 | 77 | 1014.5 |
| 20260506005404 | 8 | 21 | 3.2 | 11.3 | 0.00 | 0.00 | 0.00 | 77 | 1014.5 |
| 20260506004904 | 8 | 51 | 3.2 | 11.3 | 0.00 | 0.00 | 0.00 | 77 | 1014.6 |
| 20260506003904 | 8 | 31 | 1.6 | 4.8 | 0.00 | 0.00 | 0.00 | 77 | 1014.6 |
| 20260506002904 | 8 | 30 | 3.2 | 12.9 | 0.00 | 0.00 | 0.00 | 77 | 1014.6 |
| 20260506002405 | 8 | 37 | 4.8 | 12.9 | 0.00 | 0.00 | 0.00 | 76 | 1014.6 |
| 20260506001905 | 8 | 48 | 3.2 | 12.9 | 0.00 | 0.00 | 0.00 | 77 | 1014.7 |
| 20260506001404 | 8 | 13 | 3.2 | 11.3 | 0.00 | 0.00 | 0.00 | 77 | 1014.7 |
| 20260506000904 | 8 | 22 | 3.2 | 11.3 | 0.00 | 0.00 | 0.00 | 77 | 1014.7 |
| 20260506000404 | 8 | 357 | 3.2 | 11.3 | 0.00 | 0.00 | 0.00 | 76 | 1014.7 |
| 20260505235904 | 8 | 38 | 3.2 | 11.3 | 0.00 | 0.00 | 0.00 | 76 | 1014.7 |
| 20260505235405 | 8 | 26 | 3.2 | 11.3 | 0.00 | 0.00 | 0.00 | 76 | 1014.8 |
| 20260505234904 | 8 | 38 | 1.6 | 11.3 | 0.00 | 0.00 | 0.00 | 75 | 1014.7 |
| 20260505234404 | 8 | 52 | 3.2 | 8.0 | 0.00 | 0.00 | 0.00 | 75 | 1014.8 |
| 20260505233405 | 8 | 66 | 3.2 | 9.7 | 0.00 | 0.00 | 0.00 | 74 | 1014.8 |
| 20260505232905 | 8 | 46 | 4.8 | 12.9 | 0.00 | 0.00 | 0.00 | 74 | 1014.8 |
| 20260505232404 | 8 | 42 | 1.6 | 14.5 | 0.00 | 0.00 | 0.00 | 74 | 1014.8 |
| 20260505231904 | 8 | 42 | 4.8 | 14.5 | 0.00 | 0.00 | 0.00 | 73 | 1014.8 |
| 20260505231404 | 8 | 45 | 3.2 | 14.5 | 0.00 | 0.00 | 0.00 | 73 | 1014.8 |
| 20260505230904 | 8 | 31 | 4.8 | 16.1 | 0.00 | 0.00 | 0.00 | 73 | 1014.8 |
| 20260505230404 | 9 | 29 | 4.8 | 16.1 | 0.00 | 0.00 | 0.00 | 73 | 1014.9 |
| 20260505225403 | 9 | 40 | 6.4 | 22.5 | 0.00 | 0.00 | 0.00 | 75 | 1014.9 |
| 20260505224404 | 9 | 21 | 8.0 | 16.1 | 0.00 | 0.00 | 0.00 | 78 | 1014.9 |
| 20260505223905 | 9 | 37 | 3.2 | 11.3 | 0.00 | 0.00 | 0.00 | 78 | 1014.9 |
| 20260505223404 | 9 | 12 | 3.2 | 11.3 | 0.00 | 0.00 | 0.00 | 77 | 1014.9 |
| 20260505222904 | 9 | 32 | 4.8 | 11.3 | 0.00 | 0.00 | 0.00 | 77 | 1014.8 |
| 20260505222404 | 9 | 22 | 1.6 | 9.7 | 0.00 | 0.00 | 0.00 | 77 | 1014.7 |
| 20260505221904 | 9 | 35 | 4.8 | 11.3 | 0.00 | 0.00 | 0.00 | 76 | 1014.7 |
| 20260505221404 | 9 | 39 | 1.6 | 16.1 | 0.00 | 0.00 | 0.00 | 76 | 1014.8 |
| 20260505220904 | 9 | 22 | 8.0 | 16.1 | 0.00 | 0.00 | 0.00 | 75 | 1014.7 |
| 20260505215404 | 10 | 29 | 4.8 | 19.3 | 0.00 | 0.00 | 0.00 | 74 | 1014.7 |
| 20260505214906 | 10 | 59 | 3.2 | 14.5 | 0.00 | 0.00 | 0.00 | 73 | 1014.8 |
| 20260505214405 | 10 | 46 | 4.8 | 14.5 | 0.00 | 0.00 | 0.00 | 73 | 1014.8 |
| 20260505213904 | 10 | 62 | 6.4 | 14.5 | 0.00 | 0.00 | 0.00 | 73 | 1014.8 |
| 20260505213404 | 10 | 30 | 4.8 | 11.3 | 0.00 | 0.00 | 0.00 | 72 | 1014.8 |
| 20260505212404 | 10 | 40 | 4.8 | 11.3 | 0.00 | 0.00 | 0.00 | 72 | 1014.8 |
| 20260505211904 | 10 | 42 | 3.2 | 19.3 | 0.00 | 0.00 | 0.00 | 71 | 1014.8 |
| 20260505211405 | 10 | 53 | 4.8 | 19.3 | 0.00 | 0.00 | 0.00 | 70 | 1014.9 |
| 20260505210404 | 10 | 51 | 8.0 | 19.3 | 0.00 | 0.00 | 0.00 | 71 | 1014.9 |
| 20260505205904 | 10 | 50 | 8.0 | 19.3 | 0.00 | 0.00 | 0.00 | 73 | 1014.8 |
| 20260505205404 | 10 | 77 | 6.4 | 19.3 | 0.00 | 0.00 | 0.00 | 74 | 1014.7 |
| 20260505204904 | 10 | 37 | 4.8 | 19.3 | 0.00 | 0.00 | 0.00 | 74 | 1014.6 |
| 20260505204404 | 11 | 41 | 8.0 | 20.9 | 0.00 | 0.00 | 0.00 | 73 | 1014.6 |
| 20260505203904 | 11 | 32 | 8.0 | 20.9 | 0.00 | 0.00 | 0.00 | 74 | 1014.5 |
| 20260505202905 | 11 | 26 | 4.8 | 14.5 | 0.00 | 0.00 | 0.00 | 74 | 1014.4 |
| 20260505202404 | 11 | 57 | 8.0 | 14.5 | 0.00 | 0.00 | 0.00 | 74 | 1014.4 |
| 20260505201905 | 11 | 49 | 4.8 | 14.5 | 0.00 | 0.00 | 0.00 | 74 | 1014.3 |
| 20260505201405 | 11 | 54 | 6.4 | 16.1 | 0.00 | 0.00 | 0.00 | 73 | 1014.3 |
| 20260505200404 | 11 | 28 | 4.8 | 16.1 | 0.00 | 0.00 | 0.00 | 74 | 1014.2 |
| 20260505195905 | 11 | 25 | 4.8 | 14.5 | 0.00 | 0.00 | 0.00 | 74 | 1014.2 |
| 20260505194904 | 11 | 36 | 4.8 | 14.5 | 0.00 | 0.00 | 0.00 | 73 | 1014.1 |
| 20260505194404 | 11 | 63 | 3.2 | 14.5 | 0.00 | 0.00 | 0.00 | 73 | 1014.0 |
| 20260505193904 | 11 | 33 | 3.2 | 20.9 | 0.00 | 0.00 | 0.00 | 73 | 1013.8 |
| 20260505192904 | 12 | 63 | 8.0 | 19.3 | 0.00 | 0.00 | 0.00 | 72 | 1013.8 |
| 20260505192404 | 12 | 40 | 6.4 | 16.1 | 0.00 | 0.00 | 0.00 | 72 | 1013.7 |
| 20260505191904 | 12 | 38 | 4.8 | 16.1 | 0.00 | 0.00 | 0.00 | 71 | 1013.6 |
| 20260505191404 | 12 | 46 | 6.4 | 16.1 | 0.00 | 0.00 | 0.00 | 70 | 1013.5 |
| 20260505190904 | 12 | 42 | 6.4 | 14.5 | 0.00 | 0.00 | 0.00 | 71 | 1013.5 |
| 20260505190404 | 13 | 48 | 4.8 | 19.3 | 0.00 | 0.00 | 0.00 | 72 | 1013.4 |
| 20260505185905 | 13 | 45 | 4.8 | 19.3 | 0.00 | 0.00 | 0.00 | 71 | 1013.3 |
| 20260505185404 | 13 | 77 | 4.8 | 16.1 | 0.00 | 0.00 | 0.00 | 70 | 1013.3 |
| 20260505184904 | 13 | 69 | 4.8 | 19.3 | 0.00 | 0.00 | 0.00 | 70 | 1013.3 |
| 20260505184405 | 13 | 48 | 8.0 | 19.3 | 0.00 | 0.00 | 0.00 | 69 | 1013.2 |
| 20260505183904 | 13 | 66 | 4.8 | 14.5 | 0.00 | 0.00 | 0.00 | 69 | 1013.1 |
| 20260505182904 | 14 | 63 | 4.8 | 14.5 | 0.00 | 0.00 | 0.00 | 66 | 1012.9 |
| 20260505182403 | 14 | 49 | 3.2 | 14.5 | 0.00 | 0.00 | 0.00 | 60 | 1012.9 |
| 20260505181904 | 14 | 10 | 3.2 | 9.7 | 0.00 | 0.00 | 0.00 | 59 | 1012.8 |
| 20260505181404 | 15 | 12 | 3.2 | 12.9 | 0.00 | 0.00 | 0.00 | 58 | 1012.8 |
| 20260505180903 | 15 | 2 | 3.2 | 16.1 | 0.00 | 0.00 | 0.00 | 58 | 1012.8 |
| 20260505180404 | 15 | 21 | 3.2 | 16.1 | 0.00 | 0.00 | 0.00 | 58 | 1012.8 |
| 20260505175904 | 15 | 8 | 3.2 | 12.9 | 0.00 | 0.00 | 0.00 | 57 | 1012.7 |
| 20260505174904 | 15 | 38 | 4.8 | 14.5 | 0.00 | 0.00 | 0.00 | 57 | 1012.7 |
| 20260505174405 | 16 | 9 | 4.8 | 14.5 | 0.00 | 0.00 | 0.00 | 56 | 1012.7 |
| 20260505173904 | 16 | 8 | 4.8 | 16.1 | 0.00 | 0.00 | 0.00 | 55 | 1012.8 |
| 20260505173404 | 16 | 19 | 4.8 | 16.1 | 0.00 | 0.00 | 0.00 | 55 | 1012.8 |
| 20260505172904 | 16 | 4 | 8.0 | 16.1 | 0.00 | 0.00 | 0.00 | 54 | 1012.9 |
| 20260505172404 | 16 | 3 | 8.0 | 16.1 | 0.00 | 0.00 | 0.00 | 53 | 1012.8 |
| 20260505171904 | 17 | 16 | 8.0 | 16.1 | 0.00 | 0.00 | 0.00 | 52 | 1012.8 |
| 20260505165905 | 17 | 4 | 4.8 | 16.1 | 0.00 | 0.00 | 0.00 | 55 | 1012.9 |
| 20260505165404 | 17 | 27 | 6.4 | 19.3 | 0.00 | 0.00 | 0.00 | 56 | 1012.9 |
| 20260505164905 | 16 | 16 | 6.4 | 19.3 | 0.00 | 0.00 | 0.00 | 56 | 1012.9 |
| 20260505164404 | 16 | 23 | 3.2 | 11.3 | 0.00 | 0.00 | 0.00 | 56 | 1012.9 |
| 20260505163904 | 16 | 18 | 3.2 | 19.3 | 0.00 | 0.00 | 0.00 | 55 | 1012.8 |
| 20260505163404 | 16 | 17 | 4.8 | 19.3 | 0.00 | 0.00 | 0.00 | 55 | 1012.8 |
| 20260505162904 | 16 | 23 | 3.2 | 14.5 | 0.00 | 0.00 | 0.00 | 55 | 1012.8 |
| 20260505162404 | 17 | 22 | 3.2 | 14.5 | 0.00 | 0.00 | 0.00 | 54 | 1012.8 |
| 20260505161904 | 17 | 7 | 4.8 | 14.5 | 0.00 | 0.00 | 0.00 | 54 | 1012.8 |
| 20260505161405 | 17 | 23 | 4.8 | 14.5 | 0.00 | 0.00 | 0.00 | 53 | 1012.8 |
| 20260505160903 | 18 | 21 | 4.8 | 14.5 | 0.00 | 0.00 | 0.00 | 52 | 1012.8 |
| 20260505160404 | 18 | 24 | 4.8 | 14.5 | 0.00 | 0.00 | 0.00 | 52 | 1012.7 |
| 20260505152904 | 17 | 1 | 3.2 | 16.1 | 0.00 | 0.00 | 0.00 | 58 | 1012.8 |
| 20260505152405 | 17 | 15 | 8.0 | 16.1 | 0.00 | 0.00 | 0.00 | 57 | 1012.8 |
| 20260505151904 | 17 | 9 | 3.2 | 12.9 | 0.00 | 0.00 | 0.00 | 56 | 1013.0 |
| 20260505151404 | 17 | 26 | 3.2 | 11.3 | 0.00 | 0.00 | 0.00 | 58 | 1012.9 |
| 20260505150904 | 17 | 65 | 3.2 | 11.3 | 0.00 | 0.00 | 0.00 | 57 | 1013.0 |
| 20260505140403 | 16 | 8 | 6.4 | 16.1 | 0.00 | 0.00 | 0.00 | 60 | 1013.2 |
| 20260505124904 | 17 | 38 | 3.2 | 11.3 | 0.00 | 0.00 | 0.00 | 59 | 1013.0 |
| 20260505124404 | 17 | 20 | 1.6 | 11.3 | 0.00 | 0.00 | 0.00 | 57 | 1013.0 |
| 20260505123904 | 17 | 12 | 3.2 | 9.7 | 0.00 | 0.00 | 0.00 | 59 | 1013.1 |
| 20260505122904 | 17 | 70 | 3.2 | 12.9 | 0.00 | 0.00 | 0.00 | 58 | 1013.0 |
| 20260505121904 | 17 | 4 | 3.2 | 12.9 | 0.00 | 0.00 | 0.00 | 57 | 1013.0 |
| 20260505121404 | 17 | 2 | 1.6 | 12.9 | 0.00 | 0.00 | 0.00 | 59 | 1013.1 |
| 20260505120904 | 17 | 14 | 6.4 | 12.9 | 0.00 | 0.00 | 0.00 | 58 | 1013.1 |
| 20260505120404 | 17 | 4 | 3.2 | 9.7 | 0.00 | 0.00 | 0.00 | 55 | 1013.1 |
| 20260505115404 | 17 | 4 | 3.2 | 11.3 | 0.00 | 0.00 | 0.00 | 56 | 1013.0 |
| 20260505114904 | 17 | 352 | 3.2 | 11.3 | 0.00 | 0.00 | 0.00 | 57 | 1013.1 |
| 20260505114404 | 17 | 0 | 1.6 | 11.3 | 0.00 | 0.00 | 0.00 | 57 | 1013.2 |
| 20260505113904 | 16 | 71 | 1.6 | 11.3 | 0.00 | 0.00 | 0.00 | 57 | 1013.2 |
| 20260505113404 | 17 | 5 | 4.8 | 14.5 | 0.00 | 0.00 | 0.00 | 57 | 1013.2 |
| 20260505112904 | 17 | 39 | 4.8 | 14.5 | 0.00 | 0.00 | 0.00 | 57 | 1013.3 |
| 20260505112404 | 17 | 356 | 1.6 | 11.3 | 0.00 | 0.00 | 0.00 | 59 | 1013.3 |
| 20260505111904 | 17 | 9 | 4.8 | 11.3 | 0.00 | 0.00 | 0.00 | 61 | 1013.3 |
| 20260505110904 | 16 | 4 | 4.8 | 12.9 | 0.00 | 0.00 | 0.00 | 60 | 1013.4 |
| 20260505110405 | 16 | 8 | 4.8 | 12.9 | 0.00 | 0.00 | 0.00 | 60 | 1013.3 |
| 20260505101904 | 15 | 5 | 3.2 | 12.9 | 0.00 | 0.00 | 0.00 | 63 | 1013.7 |
| 20260505101404 | 15 | 0 | 4.8 | 11.3 | 0.00 | 0.00 | 0.00 | 65 | 1013.7 |
| 20260505100904 | 15 | 26 | 4.8 | 14.5 | 0.00 | 0.00 | 0.00 | 64 | 1013.7 |
| 20260505100404 | 15 | 26 | 3.2 | 14.5 | 0.00 | 0.00 | 0.00 | 63 | 1013.7 |
| 20260505095904 | 14 | 12 | 4.8 | 9.7 | 0.00 | 0.00 | 0.00 | 66 | 1013.8 |
| 20260505095404 | 14 | 357 | 1.6 | 8.0 | 0.00 | 0.00 | 0.00 | 67 | 1013.8 |
| 20260505094904 | 14 | 327 | 3.2 | 8.0 | 0.00 | 0.00 | 0.00 | 67 | 1013.8 |
| 20260505094404 | 14 | 0 | 1.6 | 9.7 | 0.00 | 0.00 | 0.00 | 68 | 1013.8 |
| 20260505093904 | 14 | 6 | 3.2 | 9.7 | 0.00 | 0.00 | 0.00 | 69 | 1013.8 |
| 20260505093404 | 13 | 22 | 1.6 | 9.7 | 0.00 | 0.00 | 0.00 | 69 | 1013.8 |
| 20260505092904 | 13 | 38 | 1.6 | 12.9 | 0.00 | 0.00 | 0.00 | 69 | 1013.9 |
| 20260505092404 | 13 | 0 | 4.8 | 12.9 | 0.00 | 0.00 | 0.00 | 70 | 1014.0 |
| 20260505091904 | 13 | 342 | 1.6 | 8.0 | 0.00 | 0.00 | 0.00 | 69 | 1013.9 |
| 20260505091403 | 13 | 350 | 1.6 | 8.0 | 0.00 | 0.00 | 0.00 | 70 | 1014.0 |
| 20260505090904 | 13 | 12 | 1.6 | 11.3 | 0.00 | 0.00 | 0.00 | 71 | 1014.0 |
| 20260505090404 | 13 | 8 | 3.2 | 12.9 | 0.00 | 0.00 | 0.00 | 72 | 1014.0 |
| 20260505085903 | 13 | 353 | 3.2 | 12.9 | 0.00 | 0.00 | 0.00 | 73 | 1014.0 |
| 20260505085404 | 13 | 11 | 1.6 | 9.7 | 0.00 | 0.00 | 0.00 | 72 | 1014.0 |
| 20260505084905 | 12 | 10 | 3.2 | 9.7 | 0.00 | 0.00 | 0.00 | 71 | 1014.0 |
| 20260505084404 | 12 | 350 | 3.2 | 11.3 | 0.00 | 0.00 | 0.00 | 74 | 1014.1 |
| 20260505083904 | 12 | 24 | 1.6 | 11.3 | 0.00 | 0.00 | 0.00 | 76 | 1014.1 |
| 20260505082904 | 12 | 9 | 3.2 | 4.8 | 0.00 | 0.00 | 0.00 | 76 | 1014.2 |
| 20260505082404 | 12 | 319 | 1.6 | 8.0 | 0.00 | 0.00 | 0.00 | 77 | 1014.2 |
| 20260505081903 | 11 | 9 | 1.6 | 11.3 | 0.00 | 0.00 | 0.00 | 78 | 1014.2 |
| 20260505081403 | 11 | 347 | 3.2 | 11.3 | 0.00 | 0.00 | 0.00 | 79 | 1014.2 |
| 20260505080904 | 11 | 355 | 3.2 | 11.3 | 0.00 | 0.00 | 0.00 | 80 | 1014.3 |
| 20260505080404 | 11 | 23 | 3.2 | 11.3 | 0.00 | 0.00 | 0.00 | 80 | 1014.3 |
| 20260505075904 | 10 | 3 | 4.8 | 11.3 | 0.00 | 0.00 | 0.00 | 80 | 1014.3 |
| 20260505075403 | 10 | 19 | 3.2 | 11.3 | 0.00 | 0.00 | 0.00 | 80 | 1014.2 |
| 20260505073904 | 10 | 13 | 3.2 | 9.7 | 0.00 | 0.00 | 0.00 | 82 | 1014.3 |
| 20260505073404 | 10 | 12 | 3.2 | 11.3 | 0.00 | 0.00 | 0.00 | 83 | 1014.3 |
| 20260505072904 | 10 | 16 | 1.6 | 11.3 | 0.00 | 0.00 | 0.00 | 84 | 1014.3 |
| 20260505072404 | 9 | 11 | 3.2 | 8.0 | 0.00 | 0.00 | 0.00 | 84 | 1014.3 |
| 20260505071404 | 9 | 19 | 1.6 | 9.7 | 0.00 | 0.00 | 0.00 | 85 | 1014.4 |
| 20260505070904 | 9 | 13 | 0.0 | 9.7 | 0.00 | 0.00 | 0.00 | 85 | 1014.5 |
| 20260505065904 | 9 | 1 | 3.2 | 9.7 | 0.00 | 0.00 | 0.00 | 84 | 1014.5 |
| 20260505065404 | 9 | 15 | 1.6 | 9.7 | 0.00 | 0.00 | 0.00 | 85 | 1014.5 |
| 20260505064904 | 9 | 10 | 3.2 | 4.8 | 0.00 | 0.00 | 0.00 | 85 | 1014.5 |
| 20260505064404 | 9 | 7 | 3.2 | 4.8 | 0.00 | 0.00 | 0.00 | 86 | 1014.5 |
| 20260505063904 | 9 | 344 | 1.6 | 4.8 | 0.00 | 0.00 | 0.00 | 86 | 1014.4 |
| 20260505062404 | 9 | 8 | 1.6 | 4.8 | 0.00 | 0.00 | 0.00 | 87 | 1014.4 |
| 20260505061904 | 9 | 11 | 0.0 | 4.8 | 0.00 | 0.00 | 0.00 | 87 | 1014.5 |
| 20260505061404 | 9 | 2 | 0.0 | 9.7 | 0.00 | 0.00 | 0.00 | 86 | 1014.6 |
| 20260505060904 | 9 | 9 | 1.6 | 9.7 | 0.00 | 0.00 | 0.00 | 86 | 1014.6 |
| 20260505060404 | 9 | 308 | 1.6 | 4.8 | 0.00 | 0.00 | 0.00 | 86 | 1014.5 |
| 20260505055904 | 9 | 355 | 1.6 | 4.8 | 0.00 | 0.00 | 0.00 | 86 | 1014.4 |
| 20260505055403 | 9 | 1 | 1.6 | 4.8 | 0.00 | 0.00 | 0.00 | 87 | 1014.5 |
| 20260505054904 | 9 | 13 | 1.6 | 4.8 | 0.00 | 0.00 | 0.00 | 88 | 1014.6 |
| 20260505054404 | 9 | 325 | 1.6 | 4.8 | 0.00 | 0.00 | 0.00 | 89 | 1014.5 |
| 20260505053904 | 9 | 0 | 1.6 | 4.8 | 0.00 | 0.00 | 0.00 | 89 | 1014.5 |
| 20260505052903 | 9 | 303 | 0.0 | 3.2 | 0.00 | 0.00 | 0.00 | 89 | 1014.5 |
| 20260505052404 | 9 | 306 | 0.0 | 4.8 | 0.00 | 0.00 | 0.00 | 90 | 1014.4 |